Location: Ohmer (historical)
(38.0096°N, 122.0227°W)
Time: 00:32:37
(UTC+00:00)

Cosmos 2333 Rocket - Pass Details

Date: 14 February 2026
Orbit: 840 x 862 km, 70.8° (Epoch: 10 March)

Event Time Altitude Azimuth Distance (km) Brightness Sun altitude
Rises 14:01:46 0° 191° (S) 3,423 5.3 -11.9°
Reaches altitude 10° 14:04:14 10° 188° (S) 2,489 4.6 -11.4°
Maximum altitude 14:09:53 63° 109° (ESE) 958 2.8 -10.3°
Drops below altitude 10° 14:15:32 10° 29° (NNE) 2,495 4.9 -9.2°
Sets 14:18:01 0° 27° (NNE) 3,433 5.6 -8.7°
